[[{"header":{"parameterUnit":"m.s-1","parameterCategory":2,"la1":30.2991,"la2":30.254,"lo1":-89.0895,"lo2":-89.0444,"dy":0.0017,"dx":0.0017,"nx":28,"ny":28,"refTime":"2025-03-25T03:00:00:Z","depth":"0","parameterNumber":2,"parameterNumberName":"U-component_of_CURRENTS"},"data":[0,0,0,0,0,0,0,0,0,0,0,0,0,0,0,0,0,0,0,0,0,0,0,0,0,0,0,0,0,0,0,0,0,0,0,0,0,0,0,0,0,0,0,0,0,0,0,0,0,0,0,0,0,0,0,0,0,0,-0.0306,-0.0307,0,-0.0467,-0.0469,-0.0471,-0.0579,-0.0579,-0.058,-0.058,-0.0755,-0.0759,-0.0764,0,0,0,0,0,0,0,0,0,0,0,0,0,-0.0185,-0.0186,-0.0306,-0.0307,-0.0309,-0.0467,-0.0469,-0.0472,-0.0579,-0.0579,-0.058,-0.058,-0.0754,-0.0759,-0.0764,0,0,0,0,0,0,0,0,0,0,0,0,0,-0.0285,-0.0187,-0.0305,-0.0378,-0.0386,-0.0466,-0.0469,-0.0473,-0.0579,-0.0579,-0.058,-0.058,-0.0752,-0.0758,-0.0765,-0.0795,0,0,-0.0785,-0.0788,0,0,0,0,0,0,0,0,-0.0279,-0.029,-0.0366,-0.0373,-0.0382,-0.0499,-0.0491,-0.058,-0.0579,-0.051,-0.058,-0.058,-0.0668,-0.0681,-0.0717,-0.0803,-0.0811,-0.0785,-0.0789,-0.0792,-0.0794,0,0,0,0,0,0,0,-0.0272,-0.0284,-0.0374,-0.0367,-0.0377,-0.0435,-0.0449,-0.0509,-0.0588,-0.0516,-0.0523,-0.0534,-0.0673,-0.071,-0.0721,-0.0814,-0.0785,-0.0791,-0.0795,-0.0798,-0.0946,-0.0947,0,0,0,0,0,0,-0.0238,-0.0277,-0.0369,-0.0378,-0.0326,-0.0436,-0.0452,-0.0465,-0.0587,-0.0605,-0.0533,-0.0538,-0.0699,-0.0714,-0.0728,-0.0784,-0.0792,-0.0798,-0.0802,-0.0946,-0.0946,-0.0947,0,0,0,0,0,0,-0.0234,-0.0244,-0.0362,-0.0328,-0.0346,-0.0436,-0.045,-0.0468,-0.05,-0.0599,-0.0618,-0.0546,-0.07,-0.0719,-0.0793,-0.0791,-0.0801,-0.0807,-0.0946,-0.0946,-0.0946,-0.0887,0,0,0,0,0,0,-0.023,-0.0242,-0.0246,-0.0325,-0.0347,-0.0403,-0.045,-0.047,-0.0504,-0.0512,-0.0617,-0.0634,-0.0701,-0.0783,-0.0799,-0.08,-0.0812,-0.0946,-0.0946,-0.0946,-0.0889,-0.0885,-0.0881,0,0,0,0,0,-0.0225,-0.0235,-0.0245,-0.0256,-0.0346,-0.0402,-0.0419,-0.0488,-0.0503,-0.0519,-0.0598,-0.0631,-0.0794,-0.0789,-0.0808,-0.081,-0.0946,-0.0946,-0.0946,-0.089,-0.0886,-0.0882,0,0,0,0,0,0,-0.0202,-0.0248,-0.0261,-0.0288,-0.0332,-0.0419,-0.0445,-0.0475,-0.0549,-0.0558,-0.0645,-0.0669,-0.0731,-0.0775,-0.0767,-0.0851,-0.087,-0.0874,-0.082,-0.0817,-0.0813,-0.0788,-0.0818,0,0,0,0,0,-0.0188,-0.0201,-0.0253,-0.0276,-0.0291,-0.0358,-0.0389,-0.0427,-0.0498,-0.0531,-0.06,-0.0675,-0.0747,-0.0784,-0.0853,-0.0902,-0.0915,-0.0911,-0.0907,-0.0904,-0.0896,-0.0929,-0.0927,-0.0947,-0.0947,-0.0947,0,0,-0.0189,-0.0213,-0.0224,-0.0269,-0.0312,-0.0338,-0.038,-0.0419,-0.0446,-0.0537,-0.0599,-0.0667,-0.0757,-0.0822,-0.0851,-0.0859,-0.0898,-0.0904,-0.09,-0.0895,-0.0929,-0.0926,-0.0925,-0.0947,-0.0947,-0.0947,0,0,-0.0196,-0.021,-0.0222,-0.0246,-0.0288,-0.0324,-0.0322,-0.0391,-0.0427,-0.0488,-0.0561,-0.0625,-0.0729,-0.0797,-0.0844,-0.0855,-0.0879,-0.0869,-0.0834,-0.0866,-0.0864,-0.0863,-0.0841,-0.0839,-0.0866,-0.0866,-0.0866,0,-0.0198,-0.0214,-0.0237,-0.025,-0.0268,-0.0306,-0.0321,-0.0362,-0.0447,-0.0476,-0.0497,-0.0649,-0.0718,-0.0802,-0.0811,-0.0846,-0.0851,-0.0845,-0.086,-0.0859,-0.0859,-0.0838,-0.0836,-0.0863,-0.0863,-0.0863,-0.0864,0,-0.0213,-0.0221,-0.023,-0.0251,-0.0268,-0.0289,-0.0326,-0.0349,-0.0382,-0.0432,-0.0508,-0.0606,-0.0692,-0.072,-0.0777,-0.0813,-0.0809,-0.0851,-0.0866,-0.0853,-0.0831,-0.083,-0.0859,-0.086,-0.0861,-0.0861,0,0,-0.0248,-0.0241,-0.0248,-0.0244,-0.0265,-0.0285,-0.0302,-0.0344,-0.036,-0.0431,-0.0469,-0.0585,-0.0624,-0.0677,-0.0745,-0.0774,-0.0768,-0.0804,-0.0807,-0.0771,-0.0795,-0.0723,-0.0715,-0.0815,-0.0815,-0.0816,-0.0767,0,-0.0263,-0.0266,-0.0261,-0.0269,-0.0273,-0.0283,-0.0295,-0.0329,-0.0366,-0.041,-0.0492,-0.0559,-0.0611,-0.0649,-0.0687,-0.0762,-0.0768,-0.0775,-0.0822,-0.0823,-0.0753,-0.0714,-0.0685,-0.0635,-0.0766,-0.0766,-0.0766,0,-0.0296,-0.0285,-0.0283,-0.0262,-0.0266,-0.027,-0.028,-0.0298,-0.0349,-0.0376,-0.0437,-0.0501,-0.0566,-0.0607,-0.0688,-0.0689,-0.0726,-0.0769,-0.077,-0.0725,-0.075,-0.0678,-0.0628,-0.0592,-0.0765,-0.0765,-0.0765,0,-0.0319,-0.0309,-0.0299,-0.0296,-0.0279,-0.0276,-0.0271,-0.0298,-0.0312,-0.0354,-0.0368,-0.0452,-0.0496,-0.056,-0.0636,-0.0665,-0.0702,-0.0758,-0.0718,-0.0712,-0.0707,-0.0699,-0.0622,-0.0794,-0.0794,-0.0794,-0.0794,0,-0.0347,-0.0346,-0.0305,-0.0302,-0.029,-0.0274,-0.0275,-0.0277,-0.0291,-0.0308,-0.0354,-0.0383,-0.049,-0.0533,-0.06,-0.0629,-0.0668,-0.0687,-0.0696,-0.068,-0.0671,-0.0658,-0.0624,-0.0792,-0.0793,-0.0793,-0.0793,0,-0.039,-0.0365,-0.035,-0.0313,-0.0302,-0.0296,-0.027,-0.0274,-0.0266,-0.0283,-0.0291,-0.0336,-0.0369,-0.0441,-0.0533,-0.0569,-0.0554,-0.0618,-0.0554,-0.0556,-0.0481,-0.0445,-0.0278,-0.0246,-0.0557,-0.0555,-0.0553,0,-0.0415,-0.0407,-0.036,-0.0351,-0.0336,-0.0317,-0.0305,-0.0278,-0.0275,-0.026,-0.0272,-0.0287,-0.0308,-0.036,-0.042,-0.0461,-0.0456,-0.0452,-0.051,-0.0437,-0.0408,-0.0334,-0.0316,-0.0469,-0.0467,-0.0465,-0.0464,0,-0.0457,-0.0435,-0.0416,-0.0385,-0.0368,-0.0344,-0.0318,-0.0304,-0.027,-0.0258,-0.0241,-0.0243,-0.0259,-0.0282,-0.03,-0.0346,-0.0349,-0.0413,-0.0385,-0.0346,-0.0217,-0.0204,-0.0503,-0.0447,-0.0449,-0.045,-0.0451,-0.0452,-0.0495,-0.0487,-0.0451,-0.0426,-0.0404,-0.037,-0.0346,-0.031,-0.0278,-0.0231,-0.0227,-0.0194,-0.0192,-0.0214,-0.0227,-0.0213,-0.0209,-0.0244,-0.0207,-0.0139,-0.0094,-0.0307,-0.0239,-0.0239,-0.024,-0.024,-0.024,0,-0.0545,-0.0517,-0.0493,-0.0457,-0.0439,-0.0408,-0.0357,-0.0319,-0.0271,-0.0215,-0.018,-0.0131,-0.0112,-0.0109,-0.0093,-0.0044,-0.0026,-0.002,0.0046,0.0045,-0.0204,-0.0191,-0.0052,-0.0052,-0.0052,-0.0052,-0.0052,-0.0052,-0.0572,-0.0556,-0.0525,-0.0495,-0.0468,-0.0427,-0.0392,-0.0318,-0.0261,-0.0166,-0.0112,-0.0083,-0.0033,0.0078,0.0119,0.012,0.0195,0.0265,0.0275,0.0043,0.0022,0.0002,0.0019,0.02,0.0201,0.0509,0.0511,0.0514]},{"header":{"parameterUnit":"m.s-1","parameterCategory":2,"la1":30.2991,"la2":30.254,"lo1":-89.0895,"lo2":-89.0444,"dy":0.0017,"dx":0.0017,"nx":28,"ny":28,"refTime":"2025-03-25T03:00:00:Z","depth":"0","parameterNumber":3,"parameterNumberName":"V-component_of_CURRENTS"},"data":[0,0,0,0,0,0,0,0,0,0,0,0,0,0,0,0,0,0,0,0,0,0,0,0,0,0,0,0,0,0,0,0,0,0,0,0,0,0,0,0,0,0,0,0,0,0,0,0,0,0,0,0,0,0,0,0,0,0,-0.1975,-0.1975,0,-0.1899,-0.1898,-0.1896,-0.1809,-0.1809,-0.1808,-0.1807,-0.1555,-0.1549,-0.1543,0,0,0,0,0,0,0,0,0,0,0,0,0,-0.2022,-0.2021,-0.1975,-0.1975,-0.1974,-0.1899,-0.1898,-0.1896,-0.181,-0.1809,-0.1808,-0.1807,-0.1557,-0.155,-0.1543,0,0,0,0,0,0,0,0,0,0,0,0,0,-0.1973,-0.2021,-0.1975,-0.1927,-0.1922,-0.19,-0.1898,-0.1895,-0.181,-0.1809,-0.1808,-0.1807,-0.156,-0.1551,-0.1542,-0.1506,0,0,-0.1514,-0.151,0,0,0,0,0,0,0,0,-0.1976,-0.197,-0.1934,-0.193,-0.1925,-0.1868,-0.1822,-0.1759,-0.181,-0.1845,-0.1807,-0.1806,-0.1649,-0.1632,-0.1613,-0.1495,-0.1484,-0.1513,-0.1508,-0.1504,-0.1501,0,0,0,0,0,0,0,-0.1979,-0.1973,-0.1938,-0.1934,-0.1929,-0.1902,-0.1893,-0.181,-0.1745,-0.1842,-0.1838,-0.184,-0.1644,-0.1623,-0.1606,-0.148,-0.1513,-0.1505,-0.15,-0.1496,-0.1281,-0.1281,0,0,0,0,0,0,-0.2004,-0.1977,-0.1941,-0.1936,-0.1956,-0.1902,-0.1892,-0.1882,-0.175,-0.1732,-0.1841,-0.1836,-0.1639,-0.1617,-0.1597,-0.1533,-0.1504,-0.1495,-0.149,-0.1281,-0.1281,-0.1281,0,0,0,0,0,0,-0.2005,-0.2001,-0.1944,-0.1961,-0.1952,-0.1904,-0.1892,-0.1882,-0.1859,-0.1752,-0.1729,-0.183,-0.1637,-0.161,-0.1527,-0.1522,-0.1491,-0.1483,-0.1282,-0.1281,-0.1281,-0.1412,0,0,0,0,0,0,-0.2007,-0.2002,-0.2002,-0.1962,-0.1953,-0.1931,-0.1894,-0.1881,-0.1865,-0.1858,-0.1735,-0.1711,-0.1634,-0.1542,-0.1518,-0.1509,-0.1476,-0.1282,-0.1281,-0.1281,-0.1408,-0.1416,-0.1423,0,0,0,0,0,-0.2009,-0.2011,-0.2002,-0.1998,-0.1954,-0.1932,-0.1923,-0.1881,-0.1866,-0.1856,-0.178,-0.1715,-0.1521,-0.1535,-0.1507,-0.1495,-0.1282,-0.1282,-0.1281,-0.1405,-0.1415,-0.1423,0,0,0,0,0,0,-0.2035,-0.2003,-0.1991,-0.1985,-0.1964,-0.1919,-0.1914,-0.1891,-0.1826,-0.1816,-0.1713,-0.1684,-0.1613,-0.1535,-0.1552,-0.1431,-0.139,-0.1384,-0.1493,-0.1501,-0.1509,-0.1541,-0.1468,0,0,0,0,0,-0.2045,-0.2033,-0.2006,-0.2003,-0.1997,-0.196,-0.1947,-0.1922,-0.1867,-0.1839,-0.1762,-0.167,-0.159,-0.1533,-0.1455,-0.1384,-0.1332,-0.1356,-0.1364,-0.1371,-0.1377,-0.1292,-0.1293,-0.1279,-0.1279,-0.1279,0,0,-0.2056,-0.2039,-0.2032,-0.2008,-0.1988,-0.1977,-0.1947,-0.1934,-0.192,-0.1819,-0.1769,-0.1699,-0.1581,-0.1512,-0.1471,-0.1442,-0.1355,-0.137,-0.1378,-0.1379,-0.1291,-0.1293,-0.1294,-0.1278,-0.1279,-0.1279,0,0,-0.2074,-0.2059,-0.2055,-0.2041,-0.2024,-0.1999,-0.2001,-0.1963,-0.1939,-0.1895,-0.182,-0.1759,-0.1631,-0.1556,-0.1498,-0.1496,-0.1409,-0.1458,-0.1505,-0.1423,-0.1424,-0.1424,-0.1402,-0.1398,-0.1448,-0.1448,-0.1449,0,-0.2092,-0.2079,-0.2053,-0.205,-0.2041,-0.2013,-0.2009,-0.1986,-0.1926,-0.1907,-0.1892,-0.1739,-0.1656,-0.1562,-0.1568,-0.1516,-0.1468,-0.1487,-0.1436,-0.1435,-0.1432,-0.1408,-0.1403,-0.1455,-0.1454,-0.1453,-0.1453,0,-0.2103,-0.2096,-0.2098,-0.2077,-0.2063,-0.2059,-0.2031,-0.2015,-0.1994,-0.1967,-0.1903,-0.1809,-0.1712,-0.168,-0.1623,-0.1557,-0.1533,-0.1472,-0.1424,-0.1442,-0.1415,-0.1408,-0.1464,-0.1461,-0.146,-0.1458,0,0,-0.2131,-0.2108,-0.2109,-0.21,-0.2077,-0.2063,-0.2053,-0.2026,-0.2013,-0.1975,-0.1944,-0.1849,-0.1814,-0.1746,-0.1666,-0.1605,-0.1576,-0.1539,-0.1532,-0.1538,-0.143,-0.1473,-0.1469,-0.1496,-0.1494,-0.1493,-0.1434,0,-0.2148,-0.2143,-0.2125,-0.2117,-0.2112,-0.2084,-0.207,-0.2044,-0.2021,-0.1988,-0.1923,-0.1857,-0.183,-0.1778,-0.1723,-0.1596,-0.1554,-0.16,-0.1392,-0.1387,-0.1439,-0.146,-0.1528,-0.1485,-0.1426,-0.1425,-0.1424,0,-0.216,-0.2155,-0.2152,-0.2125,-0.212,-0.2111,-0.2079,-0.2062,-0.2022,-0.2002,-0.1956,-0.1899,-0.182,-0.1784,-0.163,-0.1655,-0.1565,-0.1486,-0.1479,-0.1465,-0.1414,-0.1444,-0.1472,-0.1466,-0.1411,-0.1412,-0.1413,0,-0.2178,-0.2168,-0.2163,-0.2157,-0.213,-0.2121,-0.21,-0.2068,-0.2044,-0.2002,-0.1976,-0.1897,-0.1826,-0.1718,-0.1596,-0.159,-0.1431,-0.1388,-0.1357,-0.136,-0.1351,-0.1356,-0.1363,-0.1284,-0.1284,-0.1284,-0.1284,0,-0.2192,-0.2187,-0.2172,-0.217,-0.2157,-0.2133,-0.2111,-0.209,-0.2048,-0.2011,-0.1976,-0.1927,-0.1796,-0.1699,-0.1601,-0.1479,-0.1432,-0.1383,-0.1341,-0.1404,-0.1414,-0.1351,-0.1338,-0.1282,-0.1282,-0.1283,-0.1283,0,-0.2204,-0.2196,-0.219,-0.2173,-0.2165,-0.2153,-0.2108,-0.2085,-0.2056,-0.2005,-0.1984,-0.1918,-0.1809,-0.1703,-0.152,-0.1473,-0.1334,-0.1311,-0.1438,-0.1413,-0.1406,-0.1398,-0.1338,-0.1212,-0.1284,-0.1285,-0.1285,0,-0.2203,-0.2205,-0.2196,-0.2185,-0.2176,-0.2153,-0.2128,-0.2091,-0.2065,-0.1996,-0.1967,-0.1872,-0.1813,-0.1632,-0.1543,-0.1421,-0.1327,-0.1389,-0.1394,-0.1438,-0.1394,-0.1383,-0.1277,-0.1445,-0.1447,-0.1448,-0.1449,0,-0.2204,-0.2206,-0.2201,-0.2189,-0.2168,-0.2136,-0.2103,-0.2085,-0.2033,-0.1998,-0.1944,-0.1897,-0.1783,-0.1715,-0.1585,-0.1502,-0.1396,-0.1416,-0.1395,-0.1485,-0.1533,-0.1381,-0.1491,-0.1462,-0.1461,-0.146,-0.1459,-0.1459,-0.2197,-0.2194,-0.2191,-0.2178,-0.2157,-0.2121,-0.2092,-0.2065,-0.2026,-0.1967,-0.194,-0.1884,-0.1843,-0.1704,-0.1612,-0.1548,-0.1464,-0.152,-0.1499,-0.1477,-0.1387,-0.1572,-0.1531,-0.153,-0.153,-0.1529,-0.1528,0,-0.2188,-0.2179,-0.217,-0.2148,-0.213,-0.2115,-0.2071,-0.2042,-0.2011,-0.1978,-0.1941,-0.1909,-0.1863,-0.1775,-0.1721,-0.1652,-0.1544,-0.1602,-0.1595,-0.146,-0.1582,-0.1623,-0.1681,-0.1681,-0.1681,-0.1681,-0.1681,-0.1681,-0.2172,-0.2164,-0.2164,-0.2131,-0.2113,-0.2065,-0.2039,-0.2007,-0.1991,-0.1961,-0.1942,-0.191,-0.1827,-0.1832,-0.1758,-0.1724,-0.1549,-0.1646,-0.1442,-0.1585,-0.1576,-0.1566,-0.1603,-0.1656,-0.1655,-0.1312,-0.131,-0.1308]}],[{"header":{"parameterUnit":"m.s-1","parameterCategory":2,"la1":30.2991,"la2":30.254,"lo1":-89.0895,"lo2":-89.0444,"dy":0.0017,"dx":0.0017,"nx":28,"ny":28,"refTime":"2025-03-25T03:00:00:Z","depth":"2","parameterNumber":2,"parameterNumberName":"U-component_of_CURRENTS"},"data":[0,0,0,0,0,0,0,0,0,0,0,0,0,0,0,0,0,0,0,0,0,0,0,0,0,0,0,0,0,0,0,0,0,0,0,0,0,0,0,0,0,0,0,0,0,0,0,0,0,0,0,0,0,0,0,0,0,0,-0.0357,-0.0357,0,-0.0329,-0.0328,-0.0328,-0.0353,-0.0354,-0.0355,-0.0356,-0.0302,-0.03,-0.0297,0,0,0,0,0,0,0,0,0,0,0,0,0,-0.039,-0.0389,-0.0357,-0.0357,-0.0356,-0.0329,-0.0328,-0.0328,-0.0353,-0.0354,-0.0356,-0.0357,-0.0303,-0.03,-0.0297,0,0,0,0,0,0,0,0,0,0,0,0,0,-0.0369,-0.0389,-0.0357,-0.0366,-0.0367,-0.0329,-0.0328,-0.0328,-0.0353,-0.0354,-0.0356,-0.0358,-0.0304,-0.03,-0.0297,-0.0241,0,0,-0.0286,-0.0284,0,0,0,0,0,0,0,0,-0.0371,-0.0368,-0.0365,-0.0365,-0.0366,-0.0347,-0.032,-0.0298,-0.0352,-0.0357,-0.0356,-0.0358,-0.0314,-0.0309,-0.03,-0.0239,-0.0236,-0.0285,-0.0283,-0.0281,-0.028,0,0,0,0,0,0,0,-0.0372,-0.0369,-0.0345,-0.0365,-0.0365,-0.0357,-0.0356,-0.0316,-0.0326,-0.0357,-0.0359,-0.0356,-0.0314,-0.0304,-0.0299,-0.0236,-0.0285,-0.0282,-0.028,-0.0278,-0.0141,-0.0139,0,0,0,0,0,0,-0.0377,-0.0371,-0.0346,-0.0344,-0.0373,-0.0355,-0.0354,-0.0351,-0.0327,-0.0325,-0.0355,-0.0358,-0.0309,-0.0303,-0.0297,-0.0265,-0.0281,-0.0278,-0.0276,-0.0142,-0.014,-0.0139,0,0,0,0,0,0,-0.0378,-0.0375,-0.0347,-0.0357,-0.0354,-0.0353,-0.0349,-0.0349,-0.0355,-0.0326,-0.0324,-0.0362,-0.031,-0.0302,-0.0268,-0.0262,-0.0276,-0.0273,-0.0144,-0.0142,-0.014,-0.0177,0,0,0,0,0,0,-0.0379,-0.0375,-0.0375,-0.0358,-0.0353,-0.0324,-0.0347,-0.0348,-0.035,-0.0354,-0.033,-0.0326,-0.0311,-0.0274,-0.0264,-0.0257,-0.027,-0.0146,-0.0143,-0.014,-0.0178,-0.0176,-0.0175,0,0,0,0,0,-0.038,-0.0371,-0.0375,-0.0373,-0.0353,-0.0323,-0.0319,-0.0324,-0.0349,-0.0338,-0.033,-0.0328,-0.025,-0.0269,-0.0259,-0.025,-0.0147,-0.0144,-0.0141,-0.0178,-0.0177,-0.0175,0,0,0,0,0,0,-0.0379,-0.0372,-0.0377,-0.0365,-0.0346,-0.0327,-0.032,-0.0328,-0.0313,-0.0324,-0.0309,-0.0302,-0.0268,-0.0244,-0.0267,-0.0198,-0.0197,-0.0192,-0.0229,-0.0227,-0.0226,-0.0222,-0.0267,0,0,0,0,0,-0.0379,-0.0376,-0.0359,-0.0349,-0.0341,-0.0334,-0.0326,-0.0328,-0.0313,-0.0311,-0.0298,-0.0274,-0.0239,-0.0226,-0.0188,-0.0151,-0.0145,-0.0135,-0.0134,-0.0134,-0.012,-0.0121,-0.012,-0.0128,-0.0128,-0.0128,0,0,-0.0375,-0.0371,-0.0369,-0.0349,-0.0339,-0.0309,-0.0334,-0.032,-0.0299,-0.0302,-0.0277,-0.0266,-0.0226,-0.0189,-0.0171,-0.0175,-0.0127,-0.013,-0.013,-0.0116,-0.0117,-0.0117,-0.0117,-0.0126,-0.0126,-0.0127,0,0,-0.0354,-0.0361,-0.0348,-0.0328,-0.0312,-0.0301,-0.03,-0.0286,-0.0287,-0.0254,-0.0256,-0.0245,-0.0189,-0.0171,-0.015,-0.0113,-0.0118,-0.0102,-0.01,-0.0102,-0.0102,-0.0102,-0.0102,-0.0102,-0.0107,-0.0107,-0.0107,0,-0.035,-0.033,-0.0336,-0.0308,-0.029,-0.0298,-0.0266,-0.0253,-0.0232,-0.0232,-0.0245,-0.0196,-0.0175,-0.0137,-0.013,-0.0113,-0.0117,-0.0119,-0.0105,-0.0104,-0.0104,-0.0103,-0.0103,-0.0108,-0.0108,-0.0108,-0.0108,0,-0.0315,-0.0293,-0.0281,-0.0252,-0.0231,-0.0206,-0.0188,-0.0181,-0.0193,-0.0188,-0.0169,-0.0154,-0.0131,-0.0125,-0.0115,-0.0098,-0.0103,-0.0106,-0.012,-0.0106,-0.0105,-0.0104,-0.011,-0.011,-0.0109,-0.0109,0,0,-0.0316,-0.0267,-0.0263,-0.0239,-0.0203,-0.0183,-0.015,-0.0126,-0.0125,-0.0118,-0.0115,-0.0077,-0.0106,-0.0083,-0.0087,-0.0091,-0.0102,-0.0102,-0.0102,-0.0122,-0.011,-0.0113,-0.0112,-0.0119,-0.0118,-0.0118,-0.0116,0,-0.0285,-0.0232,-0.0213,-0.0156,-0.0125,-0.0116,-0.0086,-0.0071,-0.0074,-0.0073,-0.0079,-0.0069,-0.0078,-0.009,-0.0093,-0.0098,-0.0098,-0.0101,-0.0101,-0.01,-0.0122,-0.011,-0.0055,-0.0049,-0.0115,-0.0115,-0.0115,0,-0.0258,-0.0224,-0.0172,-0.0117,-0.0106,-0.0079,-0.006,-0.0031,-0.0029,-0.0037,-0.0045,-0.0056,-0.0056,-0.0073,-0.0076,-0.0085,-0.0091,-0.0097,-0.0098,-0.0082,-0.01,-0.0068,-0.0044,-0.0112,-0.0113,-0.0113,-0.0113,0,-0.0268,-0.0195,-0.0161,-0.0139,-0.0081,-0.0071,-0.0047,-0.0035,-0.0023,-0.0027,-0.0036,-0.0039,-0.0051,-0.006,-0.007,-0.0083,-0.0075,-0.0096,-0.0096,-0.0096,-0.0036,-0.0031,-0.0085,-0.0085,-0.0085,-0.0085,-0.0085,0,-0.0246,-0.0214,-0.0169,-0.0148,-0.0115,-0.0077,-0.0057,-0.0043,-0.003,-0.0025,-0.003,-0.0034,-0.0051,-0.0053,-0.0063,-0.0072,-0.007,-0.0085,-0.0093,-0.0046,-0.0043,-0.0082,-0.0082,-0.0085,-0.0085,-0.0085,-0.0085,0,-0.0259,-0.0227,-0.0185,-0.0134,-0.012,-0.0104,-0.0059,-0.0046,-0.0036,-0.0033,-0.0036,-0.0034,-0.0039,-0.004,-0.0049,-0.0065,-0.007,-0.0067,-0.001,-0.0011,-0.0095,-0.0096,-0.0084,-0.0084,-0.0084,-0.0084,-0.0084,0,-0.0255,-0.0238,-0.0194,-0.018,-0.016,-0.0126,-0.0103,-0.0064,-0.0049,-0.0035,-0.0036,-0.0034,-0.0036,-0.0039,-0.0044,-0.0049,-0.0052,-0.0009,-0.002,-0.0084,-0.0094,-0.0095,-0.0096,0.0045,0.0046,0.0047,0.0048,0,-0.0246,-0.0249,-0.0221,-0.0201,-0.0179,-0.014,-0.0107,-0.01,-0.0063,-0.0067,-0.0068,-0.0068,-0.0043,-0.0025,-0.0013,-0.0008,-0.0009,0.0005,-0.0063,0.003,0.0036,0.0027,0.0022,0.0056,0.0055,0.0054,0.0054,0.0054,-0.0251,-0.0243,-0.0228,-0.0208,-0.0187,-0.0168,-0.015,-0.013,-0.0123,-0.0134,-0.0108,-0.0115,-0.0036,-0.0039,0.0004,0.0034,0.0012,0.003,0.0028,0.0026,0.0033,0.0039,0.006,0.006,0.0059,0.0059,0.0058,0,-0.0231,-0.0235,-0.0226,-0.0205,-0.0197,-0.0179,-0.0154,-0.0152,-0.0167,-0.0186,-0.019,-0.0137,-0.0074,-0.0011,0.0046,0.0074,0.0083,0.0091,0.0115,0.011,0.0104,0.0115,0.0164,0.0164,0.0164,0.0163,0,0,-0.0221,-0.0209,-0.0209,-0.0208,-0.0208,-0.0191,-0.0185,-0.0201,-0.0216,-0.026,-0.0267,-0.0226,-0.011,-0.0055,0.0048,0.0095,0.0073,0.0101,0.0024,0.0039,0.0031,0.0092,0.0106,0,0,0,0,0]},{"header":{"parameterUnit":"m.s-1","parameterCategory":2,"la1":30.2991,"la2":30.254,"lo1":-89.0895,"lo2":-89.0444,"dy":0.0017,"dx":0.0017,"nx":28,"ny":28,"refTime":"2025-03-25T03:00:00:Z","depth":"2","parameterNumber":3,"parameterNumberName":"V-component_of_CURRENTS"},"data":[0,0,0,0,0,0,0,0,0,0,0,0,0,0,0,0,0,0,0,0,0,0,0,0,0,0,0,0,0,0,0,0,0,0,0,0,0,0,0,0,0,0,0,0,0,0,0,0,0,0,0,0,0,0,0,0,0,0,0.0369,0.0368,0,0.0268,0.0266,0.0265,0.0148,0.0147,0.0145,0.0144,0.0071,0.0071,0.0071,0,0,0,0,0,0,0,0,0,0,0,0,0,0.0418,0.0418,0.0369,0.0368,0.0367,0.0268,0.0266,0.0265,0.0149,0.0147,0.0145,0.0143,0.0072,0.0071,0.0071,0,0,0,0,0,0,0,0,0,0,0,0,0,0.0364,0.0418,0.0369,0.0298,0.029,0.0268,0.0266,0.0264,0.0149,0.0147,0.0144,0.0142,0.0072,0.0071,0.0071,0.0116,0,0,0.0069,0.0068,0,0,0,0,0,0,0,0,0.0367,0.0362,0.0309,0.0303,0.0294,0.0219,0.0257,0.0216,0.015,0.0201,0.0144,0.0141,0.0126,0.0121,0.0105,0.0112,0.0109,0.0069,0.0068,0.0068,0.0068,0,0,0,0,0,0,0,0.0371,0.0365,0.0327,0.0308,0.0299,0.0256,0.0246,0.0248,0.0178,0.0197,0.0188,0.018,0.0122,0.0106,0.0103,0.0108,0.0069,0.0068,0.0068,0.0067,0.0043,0.0043,0,0,0,0,0,0,0.0391,0.037,0.0331,0.0324,0.0327,0.0257,0.0246,0.0245,0.0177,0.0165,0.0182,0.0175,0.0108,0.0103,0.01,0.0046,0.0068,0.0067,0.0067,0.0044,0.0043,0.0043,0,0,0,0,0,0,0.0393,0.0389,0.0335,0.0345,0.0335,0.026,0.0259,0.0244,0.0194,0.0166,0.0153,0.0143,0.0106,0.0101,0.0066,0.0046,0.0067,0.0067,0.0044,0.0044,0.0043,0.0005,0,0,0,0,0,0,0.0395,0.0391,0.0382,0.0347,0.0335,0.0306,0.0261,0.0244,0.0196,0.0184,0.0131,0.0122,0.0104,0.0067,0.0065,0.0046,0.0066,0.0044,0.0044,0.0043,0.0007,0.0004,0.0001,0,0,0,0,0,0.0397,0.0395,0.0382,0.0376,0.0331,0.0306,0.0296,0.0233,0.0196,0.0177,0.013,0.0122,0.0062,0.0066,0.0064,0.0044,0.0045,0.0044,0.0043,0.0008,0.0004,0.0001,0,0,0,0,0,0,0.0394,0.0382,0.0367,0.0355,0.0328,0.0286,0.0259,0.0225,0.0174,0.0152,0.012,0.011,0.007,0.0073,0.0077,0.0038,0.0053,0.0052,0.0027,0.0023,0.002,0.0021,0.0066,0,0,0,0,0,0.0399,0.0397,0.0376,0.0361,0.0352,0.0305,0.028,0.0244,0.0203,0.0174,0.0135,0.0101,0.0076,0.0058,0.0041,0.0028,0.0032,0.0015,0.0012,0.0009,0.001,0.0001,-0.0003,0.0041,0.0041,0.0041,0,0,0.0391,0.0384,0.0379,0.0361,0.0332,0.0317,0.0281,0.0244,0.0215,0.0181,0.0118,0.0089,0.0071,0.0038,0.0022,0.003,-0.0001,0.0009,0.0006,0.0008,0.0,-0.0004,-0.0008,0.0041,0.0041,0.0041,0,0,0.0385,0.0372,0.0372,0.0358,0.0327,0.0305,0.0294,0.0245,0.0202,0.016,0.012,0.0076,0.0043,0.0015,0.0002,-0.0018,-0.0017,-0.0024,-0.0041,-0.005,-0.0054,-0.0057,-0.0061,-0.0064,-0.0025,-0.0025,-0.0025,0,0.0367,0.0373,0.0363,0.036,0.0341,0.0302,0.0288,0.0254,0.0191,0.016,0.0135,0.0055,0.0033,-0.0006,-0.0028,-0.0027,-0.003,-0.003,-0.0055,-0.0058,-0.0061,-0.0063,-0.0067,-0.0027,-0.0027,-0.0027,-0.0027,0,0.0372,0.0365,0.0361,0.0351,0.0333,0.0312,0.028,0.0241,0.0188,0.0149,0.0083,0.0041,-0.0008,-0.0022,-0.0038,-0.0072,-0.0067,-0.006,-0.0048,-0.0068,-0.0069,-0.0072,-0.003,-0.0029,-0.0029,-0.0028,0,0,0.0345,0.0363,0.0353,0.0352,0.0324,0.031,0.0272,0.0227,0.019,0.0123,0.0072,0.001,-0.003,-0.0046,-0.0073,-0.0088,-0.012,-0.009,-0.0089,-0.0098,-0.014,-0.0159,-0.0163,-0.0122,-0.0123,-0.0123,-0.0135,0,0.0338,0.0349,0.035,0.0333,0.0332,0.0298,0.0267,0.022,0.0168,0.0112,0.0056,-0.0001,-0.0032,-0.0068,-0.0091,-0.0112,-0.0128,-0.0117,-0.0116,-0.0116,-0.0134,-0.0167,0.0039,0.0043,-0.0137,-0.0138,-0.0138,0,0.0328,0.0342,0.0339,0.0334,0.0326,0.0304,0.0247,0.0217,0.0147,0.0103,0.0036,-0.0009,-0.0066,-0.0078,-0.0128,-0.0123,-0.0139,-0.0147,-0.0148,-0.0153,-0.0139,0.0035,0.0045,-0.0142,-0.0142,-0.0142,-0.0142,0,0.0314,0.0322,0.0321,0.0318,0.031,0.0283,0.026,0.02,0.0165,0.009,0.0055,-0.0015,-0.0056,-0.009,-0.0142,-0.0134,-0.018,-0.0163,-0.019,-0.0191,-0.0008,0.0007,-0.0187,-0.0187,-0.0187,-0.0187,-0.0187,0,0.0306,0.0296,0.0314,0.0312,0.0295,0.028,0.0235,0.0202,0.0146,0.0102,0.0043,0.0003,-0.0062,-0.0107,-0.0139,-0.0188,-0.0182,-0.0202,-0.0201,-0.0017,-0.0003,-0.0154,-0.015,-0.0187,-0.0187,-0.0187,-0.0187,0,0.0278,0.0294,0.0294,0.0294,0.0289,0.0268,0.023,0.0202,0.0151,0.0096,0.007,0.0009,-0.0055,-0.0118,-0.0166,-0.0184,-0.0222,-0.0236,-0.0026,-0.0002,-0.0221,-0.0219,-0.0255,-0.0256,-0.0256,-0.0257,-0.0258,0,0.0269,0.0269,0.028,0.0283,0.0277,0.0253,0.0235,0.0195,0.0159,0.0101,0.0073,0.0005,-0.0046,-0.0128,-0.0166,-0.0224,-0.0256,-0.0063,-0.002,-0.0236,-0.0231,-0.0227,-0.0224,0.0221,0.0225,0.0228,0.023,0,0.0246,0.0241,0.025,0.0261,0.0252,0.025,0.0216,0.0189,0.0136,0.0102,0.0057,0.0026,-0.0038,0.0018,-0.006,-0.008,-0.0042,-0.0012,-0.0267,0.0178,0.0204,0.0211,0.0201,0.0255,0.0252,0.0251,0.0249,0.0248,0.0215,0.0218,0.0228,0.0228,0.0235,0.0225,0.0193,0.0164,0.012,0.0063,0.0065,0.0089,0.0168,0.0122,0.0068,0.0034,0.0011,0.0125,0.0122,0.0114,0.0142,0.0162,0.0212,0.021,0.0207,0.0205,0.0203,0,0.0185,0.0183,0.0196,0.0202,0.0207,0.0204,0.0167,0.0135,0.0074,0.0087,0.006,0.0211,0.0313,0.0311,0.0345,0.0303,0.0289,0.0284,0.0396,0.0379,0.0362,0.0402,0.0541,0.0539,0.0538,0.0536,0,0,0.0175,0.0166,0.0176,0.0168,0.0164,0.0133,0.01,0.0066,0.006,0.0093,0.0182,0.0254,0.039,0.0469,0.05,0.0539,0.0387,0.0482,0.026,0.038,0.0358,0.0373,0.0429,0,0,0,0,0]}],[{"header":{"parameterUnit":"m.s-1","parameterCategory":2,"la1":30.2991,"la2":30.254,"lo1":-89.0895,"lo2":-89.0444,"dy":0.0017,"dx":0.0017,"nx":28,"ny":28,"refTime":"2025-03-25T03:00:00:Z","depth":"4","parameterNumber":2,"parameterNumberName":"U-component_of_CURRENTS"},"data":[0,0,0,0,0,0,0,0,0,0,0,0,0,0,0,0,0,0,0,0,0,0,0,0,0,0,0,0,0,0,0,0,0,0,0,0,0,0,0,0,0,0,0,0,0,0,0,0,0,0,0,0,0,0,0,0,0,0,-0.0127,-0.0126,0,-0.0076,-0.0076,-0.0075,-0.0052,-0.0052,-0.0052,-0.0052,-0.0127,-0.0129,-0.0131,0,0,0,0,0,0,0,0,0,0,0,0,0,-0.0203,-0.0202,-0.0127,-0.0126,-0.0125,-0.0076,-0.0076,-0.0075,-0.0052,-0.0052,-0.0052,-0.0052,-0.0126,-0.0128,-0.0131,0,0,0,0,0,0,0,0,0,0,0,0,0,-0.0164,-0.0201,-0.0127,-0.0107,-0.0104,-0.0076,-0.0076,-0.0075,-0.0052,-0.0052,-0.0052,-0.0052,-0.0125,-0.0128,-0.0131,-0.0152,0,0,-0.0141,-0.0142,0,0,0,0,0,0,0,0,-0.0166,-0.0162,-0.011,-0.0108,-0.0105,-0.0069,-0.013,-0.0107,-0.0052,-0.0073,-0.0052,-0.0052,-0.0118,-0.0122,-0.0113,-0.0156,-0.0159,-0.0141,-0.0143,-0.0144,-0.0145,0,0,0,0,0,0,0,-0.0169,-0.0164,-0.0108,-0.011,-0.0107,-0.01,-0.0095,-0.0125,-0.01,-0.0071,-0.0069,-0.0062,-0.0118,-0.011,-0.0115,-0.016,-0.0141,-0.0144,-0.0145,-0.0147,-0.0289,-0.0291,0,0,0,0,0,0,-0.0173,-0.0166,-0.011,-0.0106,-0.0135,-0.0099,-0.0093,-0.0082,-0.0097,-0.0098,-0.0062,-0.0061,-0.0104,-0.0111,-0.0117,-0.0206,-0.0144,-0.0147,-0.0149,-0.0287,-0.0289,-0.0291,0,0,0,0,0,0,-0.0174,-0.0168,-0.0112,-0.0134,-0.0127,-0.0098,-0.0086,-0.0081,-0.0084,-0.0088,-0.0092,-0.0071,-0.0105,-0.0113,-0.0159,-0.0207,-0.0148,-0.0151,-0.0285,-0.0288,-0.029,-0.0344,0,0,0,0,0,0,-0.0177,-0.0169,-0.0161,-0.0134,-0.0125,-0.0101,-0.0085,-0.008,-0.0078,-0.0077,-0.0098,-0.0103,-0.0105,-0.0154,-0.0162,-0.021,-0.0154,-0.0282,-0.0286,-0.0289,-0.034,-0.0349,-0.0356,0,0,0,0,0,-0.018,-0.0166,-0.0161,-0.0154,-0.0116,-0.0102,-0.0097,-0.0077,-0.0079,-0.008,-0.0102,-0.0103,-0.0183,-0.0158,-0.0166,-0.0217,-0.028,-0.0285,-0.0289,-0.0337,-0.0347,-0.0356,0,0,0,0,0,0,-0.0187,-0.0161,-0.0155,-0.0132,-0.0123,-0.0097,-0.0092,-0.0088,-0.0103,-0.0118,-0.0122,-0.0129,-0.0187,-0.0195,-0.0167,-0.0269,-0.0235,-0.0241,-0.0268,-0.0278,-0.0286,-0.0267,-0.0156,0,0,0,0,0,-0.0188,-0.0174,-0.0155,-0.0138,-0.0137,-0.0122,-0.0115,-0.0115,-0.0121,-0.0126,-0.0145,-0.0177,-0.021,-0.0237,-0.0262,-0.0319,-0.0279,-0.0359,-0.0367,-0.0374,-0.0366,-0.0336,-0.0339,-0.0306,-0.0305,-0.0305,0,0,-0.0183,-0.0169,-0.0159,-0.0139,-0.0132,-0.014,-0.0119,-0.0125,-0.0142,-0.0138,-0.018,-0.0204,-0.0229,-0.0286,-0.0315,-0.0302,-0.0365,-0.038,-0.0385,-0.0372,-0.0341,-0.0343,-0.0346,-0.0308,-0.0308,-0.0307,0,0,-0.0183,-0.0163,-0.0163,-0.0162,-0.0163,-0.016,-0.0169,-0.0171,-0.0182,-0.0229,-0.0232,-0.0276,-0.0334,-0.0351,-0.037,-0.044,-0.0402,-0.0467,-0.0501,-0.0473,-0.0475,-0.0475,-0.0426,-0.0422,-0.0478,-0.0478,-0.0478,0,-0.018,-0.0177,-0.0161,-0.0171,-0.0174,-0.0175,-0.0193,-0.0204,-0.0226,-0.0247,-0.0258,-0.0336,-0.0362,-0.0414,-0.0443,-0.0457,-0.0423,-0.0461,-0.048,-0.048,-0.048,-0.0429,-0.0424,-0.0481,-0.0481,-0.0481,-0.048,0,-0.0184,-0.0192,-0.0195,-0.0209,-0.0212,-0.0228,-0.0244,-0.0269,-0.03,-0.0318,-0.0383,-0.0413,-0.0455,-0.0486,-0.0491,-0.0522,-0.049,-0.0484,-0.0447,-0.0486,-0.0431,-0.0424,-0.0486,-0.0485,-0.0484,-0.0483,0,0,-0.0154,-0.0191,-0.0194,-0.0212,-0.0239,-0.024,-0.0284,-0.0314,-0.0341,-0.0396,-0.043,-0.0505,-0.0522,-0.0542,-0.0559,-0.055,-0.0529,-0.0526,-0.0523,-0.0461,-0.0446,-0.0393,-0.038,-0.0522,-0.0521,-0.0521,-0.0406,0,-0.0167,-0.0197,-0.0213,-0.0248,-0.0268,-0.0289,-0.032,-0.0355,-0.0394,-0.0431,-0.0478,-0.0527,-0.0543,-0.0576,-0.0571,-0.0534,-0.0515,-0.0559,-0.0431,-0.0426,-0.0362,-0.0372,-0.0519,-0.04,-0.0399,-0.0398,-0.0397,0,-0.0165,-0.019,-0.0232,-0.0274,-0.0283,-0.0317,-0.0358,-0.0393,-0.0447,-0.0479,-0.0534,-0.0554,-0.0577,-0.058,-0.0525,-0.055,-0.0505,-0.047,-0.0464,-0.0387,-0.0362,-0.0356,-0.0384,-0.0385,-0.0386,-0.0387,-0.0388,0,-0.0145,-0.0195,-0.0232,-0.0246,-0.0299,-0.0336,-0.0376,-0.0427,-0.044,-0.0522,-0.0524,-0.0566,-0.0563,-0.0533,-0.047,-0.0497,-0.0371,-0.0396,-0.03,-0.0295,-0.0351,-0.0351,-0.0343,-0.0343,-0.0343,-0.0343,-0.0344,0,-0.0139,-0.0167,-0.0238,-0.0258,-0.0297,-0.0352,-0.0398,-0.044,-0.0487,-0.0472,-0.0557,-0.0521,-0.0546,-0.0478,-0.0448,-0.0334,-0.0347,-0.0292,-0.0262,-0.0378,-0.0383,-0.0345,-0.0347,-0.0339,-0.034,-0.0341,-0.0342,0,-0.0113,-0.0158,-0.0198,-0.0271,-0.0293,-0.0334,-0.0389,-0.0396,-0.0468,-0.0444,-0.0462,-0.0465,-0.0382,-0.0366,-0.0287,-0.0272,-0.0198,-0.0153,-0.0248,-0.0228,-0.0149,-0.0156,-0.0051,-0.0048,-0.0046,-0.0044,-0.0042,0,-0.0104,-0.0127,-0.019,-0.0196,-0.0241,-0.0302,-0.0309,-0.0388,-0.0373,-0.0366,-0.0318,-0.0276,-0.0259,-0.0115,-0.0119,-0.0062,-0.0062,-0.0042,-0.0139,-0.0137,-0.0119,-0.013,-0.0139,-0.0038,-0.0038,-0.0037,-0.0036,0,-0.008,-0.0107,-0.0128,-0.0145,-0.0167,-0.017,-0.0201,-0.0194,-0.0231,-0.0258,-0.0182,-0.0166,-0.0061,-0.0044,0.0,0.0039,-0.008,-0.0018,-0.0024,-0.0115,-0.0121,-0.0108,-0.012,-0.0028,-0.0029,-0.003,-0.003,0,-0.005,-0.005,-0.0067,-0.008,-0.0075,-0.0054,-0.0093,-0.0071,-0.0082,-0.0095,-0.0037,-0.0015,-0.0011,0.002,0.0079,0.0096,0.0077,0.0039,0.0028,0.0019,-0.0017,-0.0018,0.0146,0,0,0,0,0,-0.0007,0.0007,0.0008,0.0001,0.0019,0.0014,0.0008,-0.0027,-0.0053,0.002,-0.0031,0.0058,0.0094,0.01,0.0134,0.0122,0.0084,0.016,0.0035,0.0018,0.0008,-0.0045,0,0,0,0,0,0,0.0021,0.0037,0.0028,0.0081,0.0096,0.0118,0.0106,0.0083,0.0097,0.0068,0.0089,0.007,0.0109,0.0095,0.0143,0.0147,0.0069,0.0168,0.0168,0.0023,0.0015,0.0007,-0.0051,0,0,0,0,0]},{"header":{"parameterUnit":"m.s-1","parameterCategory":2,"la1":30.2991,"la2":30.254,"lo1":-89.0895,"lo2":-89.0444,"dy":0.0017,"dx":0.0017,"nx":28,"ny":28,"refTime":"2025-03-25T03:00:00:Z","depth":"4","parameterNumber":3,"parameterNumberName":"V-component_of_CURRENTS"},"data":[0,0,0,0,0,0,0,0,0,0,0,0,0,0,0,0,0,0,0,0,0,0,0,0,0,0,0,0,0,0,0,0,0,0,0,0,0,0,0,0,0,0,0,0,0,0,0,0,0,0,0,0,0,0,0,0,0,0,-0.0058,-0.0059,0,-0.0119,-0.012,-0.012,-0.0112,-0.0111,-0.011,-0.0109,-0.008,-0.0081,-0.0081,0,0,0,0,0,0,0,0,0,0,0,0,0,0.008,0.0077,-0.0058,-0.0059,-0.006,-0.0119,-0.012,-0.012,-0.0112,-0.0111,-0.0109,-0.0108,-0.008,-0.0081,-0.0081,0,0,0,0,0,0,0,0,0,0,0,0,0,0.002,0.0076,-0.0058,-0.0063,-0.0064,-0.0119,-0.012,-0.0121,-0.0112,-0.0111,-0.0109,-0.0108,-0.008,-0.0081,-0.0081,-0.0112,0,0,-0.0081,-0.0082,0,0,0,0,0,0,0,0,0.0023,0.0015,-0.0061,-0.0063,-0.0064,-0.0107,-0.0061,-0.0113,-0.0112,-0.0093,-0.0109,-0.0107,-0.0082,-0.0082,-0.0098,-0.011,-0.0109,-0.0082,-0.0082,-0.0082,-0.0082,0,0,0,0,0,0,0,0.0027,0.0017,-0.0082,-0.0062,-0.0064,-0.0057,-0.0064,-0.0071,-0.0093,-0.0095,-0.0095,-0.0102,-0.0082,-0.0098,-0.0097,-0.0109,-0.0082,-0.0082,-0.0082,-0.0082,-0.006,-0.0059,0,0,0,0,0,0,0.0031,0.0021,-0.008,-0.0084,-0.0016,-0.0061,-0.0069,-0.0094,-0.0095,-0.0095,-0.0104,-0.0102,-0.0098,-0.0096,-0.0095,-0.0049,-0.0082,-0.0082,-0.0082,-0.006,-0.0059,-0.0059,0,0,0,0,0,0,0.0034,0.0022,-0.0077,-0.0031,-0.0044,-0.0065,-0.0093,-0.0096,-0.0106,-0.0103,-0.01,-0.0109,-0.0097,-0.0095,-0.0087,-0.0051,-0.0082,-0.0082,-0.0061,-0.006,-0.0059,-0.0009,0,0,0,0,0,0,0.0038,0.0023,0.0004,-0.0032,-0.0046,-0.0113,-0.0095,-0.0098,-0.0113,-0.0111,-0.0107,-0.0104,-0.0095,-0.0086,-0.0087,-0.0052,-0.0082,-0.0062,-0.0061,-0.0059,-0.0012,-0.0006,-0.0002,0,0,0,0,0,0.0042,0.0005,0.0003,-0.0009,-0.0071,-0.0114,-0.0121,-0.013,-0.0115,-0.013,-0.0111,-0.0103,-0.0077,-0.0087,-0.0087,-0.0051,-0.0063,-0.0061,-0.0059,-0.0014,-0.0007,-0.0002,0,0,0,0,0,0,0.0053,0.0001,-0.0001,-0.0053,-0.008,-0.0113,-0.0134,-0.0132,-0.0134,-0.0123,-0.0108,-0.0104,-0.0078,-0.0083,-0.0094,-0.0041,-0.0064,-0.0062,-0.0029,-0.0023,-0.0018,-0.0027,-0.0083,0,0,0,0,0,0.0046,0.0007,-0.0031,-0.007,-0.0087,-0.0108,-0.0125,-0.0128,-0.0136,-0.0136,-0.0119,-0.0098,-0.0077,-0.0064,-0.0056,-0.0041,-0.0048,-0.0015,-0.001,-0.0006,-0.0014,0.0011,0.0017,-0.0053,-0.0053,-0.0053,0,0,0.0042,0.0007,-0.0014,-0.007,-0.0093,-0.0126,-0.0115,-0.0145,-0.0154,-0.0131,-0.0124,-0.0088,-0.0072,-0.0041,-0.0029,-0.0037,0.0011,-0.0003,0.0,-0.0011,0.0013,0.002,0.0026,-0.0052,-0.0052,-0.0052,0,0,0.0012,-0.0021,-0.006,-0.0089,-0.0126,-0.014,-0.0147,-0.0167,-0.0159,-0.0152,-0.0118,-0.0071,-0.0051,-0.002,-0.0004,0.0023,0.0032,0.0045,0.0069,0.0093,0.0099,0.0104,0.0104,0.0109,0.0053,0.0053,0.0054,0,0.0013,-0.0046,-0.0075,-0.0117,-0.014,-0.0146,-0.018,-0.0185,-0.0187,-0.0174,-0.0144,-0.0072,-0.0045,-0.0002,0.0037,0.0035,0.0048,0.0049,0.01,0.0105,0.011,0.0108,0.0113,0.0056,0.0056,0.0055,0.0055,0,-0.0043,-0.0086,-0.0113,-0.0166,-0.0193,-0.0226,-0.0238,-0.0237,-0.0208,-0.0193,-0.0135,-0.0077,-0.0024,0.0008,0.0042,0.0102,0.01,0.0101,0.0087,0.012,0.0116,0.012,0.006,0.0059,0.0058,0.0057,0,0,-0.0045,-0.0134,-0.0138,-0.0169,-0.0219,-0.0246,-0.0263,-0.0275,-0.0271,-0.0216,-0.0188,-0.0093,-0.0023,0.0001,0.0065,0.0107,0.0173,0.0141,0.0141,0.0141,0.0225,0.0229,0.0233,0.0202,0.0203,0.0204,0.021,0,-0.0073,-0.0149,-0.0185,-0.0244,-0.0285,-0.03,-0.0315,-0.0318,-0.0293,-0.0265,-0.0179,-0.0117,-0.0039,0.0031,0.0086,0.0152,0.0187,0.017,0.0191,0.019,0.0192,0.0239,0.0207,0.0213,0.0214,0.0214,0.0215,0,-0.0106,-0.0157,-0.0211,-0.0283,-0.0299,-0.0317,-0.0336,-0.035,-0.0323,-0.029,-0.0209,-0.0144,-0.0036,0.0018,0.0136,0.0134,0.019,0.0226,0.0227,0.0213,0.0202,0.0172,0.0221,0.0221,0.022,0.022,0.0219,0,-0.0081,-0.0173,-0.0209,-0.0235,-0.0309,-0.0312,-0.0331,-0.0333,-0.0337,-0.0277,-0.0255,-0.0146,-0.0067,0.0022,0.0145,0.0155,0.0238,0.0243,0.0278,0.0277,0.0246,0.0241,0.0298,0.0298,0.0298,0.0298,0.0298,0,-0.01,-0.0133,-0.019,-0.0212,-0.0245,-0.0289,-0.03,-0.0307,-0.0303,-0.0296,-0.0228,-0.0186,-0.0053,0.0018,0.0118,0.022,0.0221,0.0285,0.0288,0.0266,0.0263,0.0249,0.0243,0.0298,0.0298,0.0298,0.0298,0,-0.0072,-0.0113,-0.016,-0.0219,-0.0231,-0.024,-0.0286,-0.03,-0.0291,-0.0278,-0.0245,-0.0199,-0.0098,-0.0005,0.0118,0.0181,0.0271,0.0295,0.0251,0.0249,0.0291,0.0288,0.0329,0.0329,0.0329,0.033,0.033,0,-0.0074,-0.0088,-0.0139,-0.0154,-0.0172,-0.0198,-0.0222,-0.026,-0.027,-0.0276,-0.0261,-0.0194,-0.0139,0.0021,0.011,0.0246,0.0271,0.0299,0.0322,0.03,0.0299,0.0295,0.0291,0.033,0.033,0.0331,0.0331,0,-0.0072,-0.0064,-0.0097,-0.0112,-0.0132,-0.0188,-0.0211,-0.0221,-0.0255,-0.0268,-0.0224,-0.0153,-0.008,0.0035,0.013,0.0232,0.0279,0.0303,0.0303,0.0325,0.0303,0.03,0.0296,0.0332,0.0332,0.0332,0.0331,0,-0.005,-0.0057,-0.0066,-0.008,-0.0107,-0.0141,-0.0181,-0.019,-0.021,-0.0212,-0.0197,-0.0128,-0.0094,0.0024,0.012,0.0215,0.0239,0.0278,0.028,0.0279,0.0271,0.0236,0.0254,0,0,0,0,0,-0.0031,-0.0026,-0.0043,-0.0064,-0.0084,-0.0096,-0.016,-0.0203,-0.0235,-0.0186,-0.0185,-0.0103,0.0016,0.0043,0.0145,0.0111,0.0239,0.0229,0.0282,0.0338,0.0337,0.0337,0,0,0,0,0,0,-0.0022,-0.0021,-0.0031,-0.0028,-0.0025,-0.0067,-0.0101,-0.0145,-0.0118,-0.0132,-0.0066,-0.0055,0.0058,-0.0006,0.0166,0.0182,0.023,0.0274,0.0276,0.0339,0.0338,0.0337,0.0337,0,0,0,0,0]}]]